Time,TemperatureF,DewpointF,PressureIn,WindDirection,WindDirectionDegrees,WindSpeedMPH,WindSpeedGustMPH,Humidity,HourlyPrecipIn,Conditions,Clouds,dailyrainin,SolarRadiationWatts/m^2,SoftwareType,DateUTC
2014-04-25 00:02:00,65.8,65.0,29.70,SSW,193,9.3,14.7,97,0.00,SCT,,0.00,0.0,WeatherDisplay:10.37,2014-04-25 05:02:00,
2014-04-25 00:07:00,65.8,65.0,29.70,SW,234,10.0,11.5,97,0.00,SCT,,0.00,0.0,WeatherDisplay:10.37,2014-04-25 05:07:00,
2014-04-25 00:12:00,65.8,65.0,29.70,South,177,6.4,10.4,97,0.00,SCT,,0.00,0.0,WeatherDisplay:10.37,2014-04-25 05:12:00,
2014-04-25 00:17:00,65.7,65.1,29.70,SSW,210,5.7,10.4,98,0.00,SCT,,0.00,0.0,WeatherDisplay:10.37,2014-04-25 05:17:00,
2014-04-25 00:22:00,65.7,65.1,29.70,NW,320,7.9,11.5,98,0.00,SCT,,0.00,0.0,WeatherDisplay:10.37,2014-04-25 05:22:00,
2014-04-25 00:27:00,65.7,65.1,29.70,WSW,258,9.3,16.1,98,0.00,SCT,,0.00,0.0,WeatherDisplay:10.37,2014-04-25 05:27:00,
2014-04-25 00:32:00,65.5,64.6,29.70,SSE,153,9.3,12.7,97,0.00,SCT,,0.00,0.0,WeatherDisplay:10.37,2014-04-25 05:32:00,
2014-04-25 00:37:00,65.1,64.2,29.70,South,190,7.2,10.7,97,0.00,SCT,,0.00,0.0,WeatherDisplay:10.37,2014-04-25 05:37:00,
2014-04-25 00:42:00,65.1,64.2,29.70,SSE,163,6.4,11.5,97,0.00,SCT,,0.00,0.0,WeatherDisplay:10.37,2014-04-25 05:42:00,
2014-04-25 00:47:00,64.9,64.1,29.70,NW,316,6.4,10.4,97,0.00,SCT,,0.00,0.0,WeatherDisplay:10.37,2014-04-25 05:47:00,
2014-04-25 00:52:00,64.8,63.6,29.74,NW,305,7.2,10.4,96,0.00,SCT,,0.00,0.0,WeatherDisplay:10.37,2014-04-25 05:52:00,
2014-04-25 00:57:00,64.6,63.4,29.74,SW,226,6.4,11.5,96,0.00,SCT,,0.00,0.0,WeatherDisplay:10.37,2014-04-25 05:57:00,
2014-04-25 01:02:00,64.4,62.9,29.74,NW,311,5.0,8.1,95,0.00,SCT,,0.00,0.0,WeatherDisplay:10.37,2014-04-25 06:02:00,
2014-04-25 01:07:00,64.2,62.5,29.74,NNW,328,6.4,10.4,94,0.00,SCT,,0.00,0.0,WeatherDisplay:10.37,2014-04-25 06:07:00,
2014-04-25 01:12:00,64.2,62.2,29.74,SSW,202,7.2,9.2,93,0.00,SCT,,0.00,0.0,WeatherDisplay:10.37,2014-04-25 06:12:00,
2014-04-25 01:17:00,64.0,62.0,29.74,NNW,332,6.4,15.0,93,0.00,SCT,,0.00,0.0,WeatherDisplay:10.37,2014-04-25 06:17:00,
2014-04-25 01:22:00,63.9,61.5,29.74,WNW,291,7.9,15.0,92,0.00,SCT,,0.00,0.0,WeatherDisplay:10.37,2014-04-25 06:22:00,
2014-04-25 01:27:00,63.7,61.0,29.74,NNW,341,10.0,13.8,91,0.00,SCT,,0.00,0.0,WeatherDisplay:10.37,2014-04-25 06:27:00,
2014-04-25 01:32:00,63.7,60.7,29.74,NW,307,5.0,8.6,90,0.00,SCT,,0.00,0.0,WeatherDisplay:10.37,2014-04-25 06:32:00,
2014-04-25 01:37:00,63.5,60.5,29.74,WNW,291,7.2,10.4,90,0.00,SCT,,0.00,0.0,WeatherDisplay:10.37,2014-04-25 06:37:00,
2014-04-25 01:42:00,63.3,60.0,29.74,NNW,341,5.0,16.1,89,0.00,SCT,,0.00,0.0,WeatherDisplay:10.37,2014-04-25 06:42:00,
2014-04-25 01:47:00,63.1,59.8,29.74,NW,309,9.3,15.0,89,0.00,SCT,,0.00,0.0,WeatherDisplay:10.37,2014-04-25 06:47:00,
2014-04-25 01:52:00,63.1,59.8,29.74,NW,321,6.4,13.9,89,0.00,SCT,,0.00,0.0,WeatherDisplay:10.37,2014-04-25 06:52:00,
2014-04-25 01:57:00,63.0,59.7,29.74,NNW,342,5.7,9.2,89,0.00,SCT,,0.00,0.0,WeatherDisplay:10.37,2014-04-25 06:57:00,
2014-04-25 02:02:00,63.0,59.7,29.74,SSW,201,9.3,15.0,89,0.00,SCT,,0.00,0.0,WeatherDisplay:10.37,2014-04-25 07:02:00,
2014-04-25 02:07:00,63.0,59.3,29.73,NW,315,5.7,10.7,88,0.00,SCT,,0.00,0.0,WeatherDisplay:10.37,2014-04-25 07:07:00,
2014-04-25 02:12:00,62.8,59.2,29.74,NNW,336,8.6,15.0,88,0.00,SCT,,0.00,0.0,WeatherDisplay:10.37,2014-04-25 07:12:00,
2014-04-25 02:17:00,62.6,59.0,29.74,NW,308,7.2,10.4,88,0.00,SCT,,0.00,0.0,WeatherDisplay:10.37,2014-04-25 07:17:00,
2014-04-25 02:22:00,62.6,58.7,29.74,SSW,196,12.5,21.9,87,0.00,SCT,,0.00,0.0,WeatherDisplay:10.37,2014-04-25 07:22:00,
2014-04-25 02:27:00,62.4,58.5,29.74,NNW,328,7.9,13.8,87,0.00,SCT,,0.00,0.0,WeatherDisplay:10.37,2014-04-25 07:27:00,
2014-04-25 02:32:00,62.4,58.2,29.74,NW,304,7.9,13.9,86,0.00,SCT,,0.00,0.0,WeatherDisplay:10.37,2014-04-25 07:32:00,
2014-04-25 02:37:00,62.2,58.0,29.74,NW,321,8.6,15.0,86,0.00,SCT,,0.00,0.0,WeatherDisplay:10.37,2014-04-25 07:37:00,
2014-04-25 02:42:00,62.2,57.7,29.74,West,276,5.7,9.2,85,0.00,SCT,,0.00,0.0,WeatherDisplay:10.37,2014-04-25 07:42:00,
2014-04-25 02:47:00,62.1,57.5,29.74,NNW,329,7.9,12.7,85,0.00,SCT,,0.00,0.0,WeatherDisplay:10.37,2014-04-25 07:47:00,
2014-04-25 02:52:00,62.1,57.5,29.76,NNW,343,11.8,15.0,85,0.00,SCT,,0.00,0.0,WeatherDisplay:10.37,2014-04-25 07:52:00,
2014-04-25 02:57:00,61.9,57.3,29.76,North,0,7.2,12.7,85,0.00,SCT,,0.00,0.0,WeatherDisplay:10.37,2014-04-25 07:57:00,
2014-04-25 03:02:00,61.7,57.1,29.76,NW,309,7.9,13.8,85,0.00,SCT,,0.00,0.0,WeatherDisplay:10.37,2014-04-25 08:02:00,
2014-04-25 03:07:00,61.7,57.1,29.76,NNW,336,10.0,12.7,85,0.00,SCT,,0.00,0.0,WeatherDisplay:10.37,2014-04-25 08:07:00,
2014-04-25 03:12:00,61.5,56.6,29.76,NNE,24,11.8,15.0,84,0.00,SCT,,0.00,0.0,WeatherDisplay:10.37,2014-04-25 08:12:00,
2014-04-25 03:17:00,61.3,56.5,29.76,NNW,337,7.9,11.5,84,0.00,SCT,,0.00,0.0,WeatherDisplay:10.37,2014-04-25 08:17:00,
2014-04-25 03:22:00,61.3,56.8,29.76,SSE,162,10.0,15.0,85,0.00,SCT,,0.00,0.0,WeatherDisplay:10.37,2014-04-25 08:22:00,
2014-04-25 03:27:00,61.3,56.8,29.76,WNW,298,10.0,15.0,85,0.00,SCT,,0.00,0.0,WeatherDisplay:10.37,2014-04-25 08:27:00,
2014-04-25 03:32:00,61.3,56.8,29.76,SSW,203,7.2,8.6,85,0.00,SCT,,0.00,0.0,WeatherDisplay:10.37,2014-04-25 08:32:00,
2014-04-25 03:37:00,61.2,56.6,29.76,NNW,332,10.0,13.8,85,0.00,SCT,,0.00,0.0,WeatherDisplay:10.37,2014-04-25 08:37:00,
2014-04-25 03:42:00,61.2,56.3,29.76,WNW,301,7.2,12.7,84,0.00,SCT,,0.00,0.0,WeatherDisplay:10.37,2014-04-25 08:42:00,
2014-04-25 03:47:00,61.0,56.1,29.76,NW,319,9.3,12.7,84,0.00,SCT,,0.00,0.0,WeatherDisplay:10.37,2014-04-25 08:47:00,
2014-04-25 03:52:00,61.0,56.1,29.76,NNW,342,5.0,11.1,84,0.00,SCT,,0.00,0.0,WeatherDisplay:10.37,2014-04-25 08:52:00,
2014-04-25 03:57:00,60.8,55.9,29.76,NW,316,8.6,11.5,84,0.00,SCT,,0.00,0.0,WeatherDisplay:10.37,2014-04-25 08:57:00,
2014-04-25 04:02:00,60.8,55.9,29.76,NNW,339,6.4,10.4,84,0.00,SCT,,0.00,0.0,WeatherDisplay:10.37,2014-04-25 09:02:00,
2014-04-25 04:07:00,60.6,55.8,29.80,North,351,7.2,13.2,84,0.00,SCT,,0.00,0.0,WeatherDisplay:10.37,2014-04-25 09:07:00,
2014-04-25 04:12:00,60.6,55.4,29.80,NNW,345,4.3,8.6,83,0.00,SCT,,0.00,0.0,WeatherDisplay:10.37,2014-04-25 09:12:00,
2014-04-25 04:17:00,60.4,55.3,29.80,NNW,327,6.4,11.5,83,0.00,SCT,,0.00,0.0,WeatherDisplay:10.37,2014-04-25 09:17:00,
2014-04-25 04:22:00,60.4,54.9,29.80,NNW,329,9.3,13.8,82,0.00,SCT,,0.00,0.0,WeatherDisplay:10.37,2014-04-25 09:22:00,
2014-04-25 04:27:00,60.3,54.7,29.80,NW,311,7.2,9.3,82,0.00,SCT,,0.00,0.0,WeatherDisplay:10.37,2014-04-25 09:27:00,
2014-04-25 04:32:00,60.3,54.7,29.80,NNW,328,5.0,11.5,82,0.00,SCT,,0.00,0.0,WeatherDisplay:10.37,2014-04-25 09:32:00,
2014-04-25 04:37:00,60.1,54.6,29.80,NNW,339,6.4,10.4,82,0.00,SCT,,0.00,0.0,WeatherDisplay:10.37,2014-04-25 09:37:00,
2014-04-25 04:42:00,60.1,54.6,29.80,NE,44,0.0,12.5,82,0.00,SCT,,0.00,0.0,WeatherDisplay:10.37,2014-04-25 09:42:00,